Change the Weather History Date:

Tuesday, January 1, 2013

  Actual Average Record
Temperature  
Mean Temperature 60 °F -  
Max Temperature 71 °F 68 °F 82 °F (2005)
Min Temperature 50 °F 51 °F 46 °F (2012)
Degree Days  
Heating Degree Days 4    
Growing Degree Days 10 (Base 50)    
Moisture  
Dew Point 43 °F    
Average Humidity 47    
Maximum Humidity 71    
Minimum Humidity 24    
Precipitation  
Precipitation 0.00 in 0.01 in - ()
Sea Level Pressure  
Sea Level Pressure 30.05 in    
Wind  
Wind Speed 8 mph ()    
Max Wind Speed 17 mph    
Max Gust Speed -    
Averages and records for this station are not official NWS values.
T = Trace of Precipitation, MM = Missing Value Source: Averaged Metar Reports

Daily Weather History Graph

Daily Weather History Graph

Search for Another Location

Airport or City:

Trip Planner

Search our weather history database for the weather conditions in past years. The results will help you decide how hot, cold, wet, or windy it might be!

Date:

Astronomy

Jan. 01, 2013 Rise Set
Actual Time 6:35 AM IST 4:52 PM IST
Civil Twilight 6:08 AM IST 5:18 PM IST
Nautical Twilight 5:39 AM IST 5:48 PM IST
Astronomical Twilight 5:10 AM IST 6:17 PM IST
Moon 8:42 PM IST (1/1) 8:54 AM IST (1/1)
Length of Visible Light 11h 09m
Length of Day
10h 17m
Waning Gibbous, 85% of the Moon is Illuminated
Jan 1
Waning Gibbous
Jan 5
Last Quarter
Jan 11
New
Jan 19
First Quarter
Jan 27
Full

Hourly Weather History & Observations

Time (IST) Temp. Dew Point Humidity Pressure Visibility Wind Dir Wind Speed Gust Speed Precip Events Conditions
2:00 AM 56 °F 39 °F 42% 30.03 in - NE 3.5 mph - -  
5:50 AM 51.8 °F 41.0 °F 67% 30.04 in - NE 5.8 mph - N/A   Clear
6:50 AM 51.8 °F 42.8 °F 71% 30.04 in - NE 5.8 mph - N/A   Clear
7:50 AM 53.6 °F 42.8 °F 67% 30.06 in - NE 8.1 mph - N/A   Clear
8:00 AM 56 °F 43 °F 52% 30.07 in - NNE 4.6 mph - -  
8:50 AM 60.8 °F 46.4 °F 59% 30.06 in - NNE 12.7 mph - N/A   Clear
9:50 AM 62.6 °F 46.4 °F 55% 30.06 in - NNE 16.1 mph - N/A   Clear
10:50 AM 66.2 °F 46.4 °F 49% 30.06 in - NNE 17.3 mph - N/A   Clear
11:50 AM 68.0 °F 46.4 °F 46% 30.04 in - NE 15.0 mph - N/A   Clear
12:50 PM 69.8 °F 44.6 °F 40% 30.01 in - NNE 16.1 mph - N/A   Clear
1:50 PM 69.8 °F 42.8 °F 38% 30.01 in - NNE 17.3 mph - N/A   Clear
2:00 PM 71 °F 42 °F 24% 30.01 in - NNE 6.9 mph - -  
2:50 PM 71.6 °F 41.0 °F 33% 30.01 in - NNE 15.0 mph - N/A   Clear
3:50 PM 69.8 °F 41.0 °F 35% 30.01 in - NNE 13.8 mph - N/A   Clear
4:50 PM 69.8 °F 41.0 °F 35% 30.04 in - NNE 15.0 mph - N/A   Clear
5:50 PM 68.0 °F 41.0 °F 37% 30.04 in - North 11.5 mph - N/A   Clear
6:50 PM 66.2 °F 41.0 °F 40% 30.06 in - North 9.2 mph - N/A   Clear
7:50 PM 66.2 °F 48.2 °F 52% 30.09 in - North 8.1 mph - N/A   Clear
8:00 PM 65 °F 48 °F 43% 30.10 in - North 3.5 mph - -  
8:50 PM 62.6 °F 42.8 °F 48% 30.09 in - NE 6.9 mph - N/A   Clear
9:50 PM 57.2 °F 42.8 °F 59% 30.12 in - NE 3.5 mph - N/A   Clear